Theta_e
310 310 310 310 309 309 309 309 309 309 309 309 309 309 310 310 309 310 311 311 312 314 314 313 315 315 316 319 316 315 319 320 319 318 317 317 317 313 314 316 314 315 317 318 311
311 311 311 310 310 310 310 309 309 309 309 309 309 309 309 309 310 314 312 310 312 313 314 315 316 316 318 319 319 320 320 319 317 317 316 317 316 317 316 317 318 316 316 314 311
313 313 313 313 312 312 311 311 310 309 309 309 308 308 308 309 313 312 315 312 312 314 314 313 315 317 318 318 319 320 320 319 317 315 314 316 316 315 317 318 318 318 318 317 313
315 315 315 314 314 314 313 313 312 311 310 310 309 308 307 310 313 309 315 311 312 314 313 314 316 318 319 319 318 319 319 319 318 315 316 317 317 316 317 317 317 317 317 316 316
315 315 315 315 315 315 316 315 313 312 312 312 311 309 307 311 313 311 313 312 313 313 314 316 317 317 318 317 316 318 318 318 317 316 316 316 317 317 317 317 317 316 315 314 315
316 316 316 316 316 317 317 317 314 313 312 312 311 310 309 309 309 310 311 314 314 314 314 314 316 316 316 316 316 316 316 316 315 315 315 315 316 314 315 315 315 315 315 315 314
317 318 318 318 319 319 319 316 315 314 311 310 310 309 310 311 309 310 312 315 314 313 313 311 312 315 315 315 313 313 314 315 315 314 314 313 315 315 315 314 314 314 315 315 314
319 319 320 320 320 321 321 317 315 311 310 309 309 309 312 307 307 308 313 312 313 312 311 310 311 313 313 312 313 313 313 315 315 312 312 314 315 315 314 312 313 314 314 314 315
320 321 321 322 322 322 321 317 311 311 309 308 310 308 312 307 308 308 310 310 310 309 309 309 311 313 312 314 314 314 315 315 314 313 312 314 314 314 314 312 313 313 314 314 314
322 322 322 323 323 323 319 314 310 313 312 310 309 310 309 310 309 308 309 309 309 310 311 312 313 314 312 314 316 316 315 314 314 314 313 312 313 312 312 312 312 313 313 314 314
325 324 324 323 323 323 319 309 317 314 310 313 313 311 308 308 309 308 307 308 309 311 314 312 314 315 316 315 315 313 313 314 314 314 313 313 313 313 313 313 313 313 314 314 314
326 324 324 322 324 321 317 312 309 308 317 311 309 308 307 308 311 309 308 312 312 314 310 312 314 315 312 312 312 313 314 314 314 313 310 313 313 313 313 313 314 314 313 313 313
326 325 324 323 322 318 312 310 307 306 313 314 308 308 308 308 310 310 309 310 312 312 312 315 315 312 311 313 313 313 314 315 315 313 312 312 316 314 314 312 313 311 312 311 310
325 325 325 323 321 319 313 311 307 306 321 320 311 308 308 307 309 304 306 309 311 314 312 313 310 310 311 312 313 314 314 312 312 312 318 311 319 318 316 314 312 312 312 311 310
322 322 322 321 322 320 316 311 307 305 329 317 308 307 307 308 307 306 303 309 312 312 311 313 311 310 312 313 311 314 309 310 310 313 312 315 314 319 312 314 313 313 310 310 307
320 320 321 321 321 319 316 311 308 324 329 321 308 309 310 308 307 306 307 306 306 310 309 312 306 309 311 309 309 308 310 310 311 312 318 317 315 317 315 313 312 309 308 305 304
318 319 320 320 319 316 314 315 327 327 320 322 314 309 308 308 309 308 311 311 314 316 317 314 310 308 307 310 308 309 312 322 322 321 321 313 313 315 315 311 308 308 305 303 302
313 316 319 319 318 315 315 323 327 322 323 317 316 315 321 315 314 310 311 316 310 310 316 320 322 311 308 313 319 312 314 320 323 323 320 310 316 316 312 308 306 305 303 302 301
308 309 312 314 318 314 321 321 321 321 319 320 320 321 320 317 316 315 313 316 314 311 320 321 320 308 306 307 311 312 313 313 317 318 319 317 316 316 313 308 307 304 302 299 298
305 312 312 312 317 314 320 317 317 316 317 318 321 320 321 319 318 317 319 312 313 309 307 314 319 316 312 306 307 310 311 314 312 317 320 315 315 316 312 310 305 302 299 298 296
303 309 307 313 315 314 317 316 314 315 316 318 320 320 319 319 319 319 318 315 313 316 307 312 316 318 312 313 314 311 309 309 310 313 319 320 317 312 311 305 303 299 296 295 295
308 307 309 313 315 315 315 314 312 314 313 316 317 318 318 317 316 316 316 315 314 314 316 315 315 318 316 314 309 310 312 311 314 316 314 315 316 306 303 300 297 295 294 294 293
308 306 309 311 314 314 313 312 312 313 313 314 314 314 314 315 315 313 313 312 312 314 315 315 316 318 316 314 312 316 316 315 315 314 320 321 319 306 301 299 298 296 294 293 291
304 305 306 310 310 311 311 311 312 310 311 312 313 313 313 313 312 312 311 311 310 311 310 310 313 316 315 315 314 317 315 311 312 315 315 316 315 312 309 303 297 294 294 293 290
299 301 302 309 308 309 308 307 308 308 307 307 307 309 307 308 307 308 308 309 308 307 307 310 313 311 310 311 310 311 310 308 308 308 309 308 308 307 306 301 293 291 291 292 289
298 300 299 301 302 304 306 306 308 306 304 304 305 304 304 304 304 306 305 305 305 304 305 305 307 306 306 306 307 307 307 306 305 304 304 303 303 302 293 292 291 289 290 292 289
292 294 297 298 298 301 302 303 301 302 299 298 299 300 301 301 300 299 299 299 301 301 302 303 304 304 305 304 303 304 303 301 301 301 301 301 299 293 291 291 291 290 290 291 289
Wind_Speed
8 8 8 8 9 9 9 9 9 9 9 9 9 9 11 13 15 8 7 5 5 12 10 12 6 4 2 2 1 1 4 5 4 4 2 3 4 3 3 8 5 8 9 11 3
8 9 9 10 10 10 11 11 11 11 11 11 10 10 12 15 13 9 8 6 7 16 14 14 8 6 3 2 2 4 4 5 4 5 6 6 5 6 6 13 17 13 17 17 7
7 8 10 11 11 12 12 12 12 13 14 13 12 10 10 11 5 2 2 9 10 16 11 8 9 5 4 3 6 4 7 7 7 12 7 8 9 4 9 15 15 16 15 11 12
6 8 9 10 12 12 12 14 15 15 15 15 14 12 8 4 6 2 3 10 13 16 13 9 7 5 5 6 5 6 11 10 6 4 4 7 6 9 14 25 22 21 17 15 15
6 7 9 10 12 13 14 15 15 15 15 15 14 11 2 1 7 5 5 9 15 16 12 7 7 5 6 4 3 9 10 10 11 9 10 12 21 17 20 23 24 20 16 17 17
5 7 8 10 12 14 15 17 16 17 15 14 12 7 3 6 6 7 6 11 12 13 10 9 6 6 4 6 8 2 7 12 9 15 12 10 23 5 12 11 15 15 17 16 14
4 6 8 10 12 13 17 17 18 17 15 13 10 4 3 13 6 6 7 8 12 12 6 5 4 5 3 4 1 4 11 16 16 10 8 8 12 14 20 6 14 19 17 15 15
4 6 8 10 13 15 19 19 20 14 10 8 5 6 7 4 5 8 8 5 9 8 5 4 7 2 4 1 2 5 4 10 8 5 3 8 19 19 12 7 14 17 22 23 26
4 6 8 11 14 17 20 20 11 6 6 5 3 3 6 1 1 3 8 6 9 7 5 8 4 2 3 6 7 6 11 14 16 2 4 9 12 17 15 15 26 24 24 23 21
5 7 9 12 15 19 19 14 4 3 4 7 4 3 4 0 3 4 6 14 4 10 5 3 3 6 3 7 11 15 13 11 12 13 11 17 21 20 25 22 26 26 25 18 18
8 9 12 13 14 18 17 4 2 1 1 4 3 5 3 1 4 2 4 6 5 4 7 4 7 12 17 18 19 12 15 19 23 22 17 20 20 20 22 23 25 23 18 14 14
8 9 10 12 13 13 9 4 3 2 8 7 9 8 3 1 2 3 8 6 5 6 7 4 11 19 4 6 11 14 15 21 18 17 4 16 20 24 19 17 19 16 15 13 12
8 8 6 8 13 5 5 2 2 0 4 6 2 3 1 6 5 3 5 4 4 7 12 17 10 4 8 12 14 13 15 17 18 15 14 13 14 6 10 7 8 6 8 4 10
7 6 5 3 4 5 1 4 1 0 5 3 1 1 2 2 3 0 1 0 3 7 5 8 3 6 5 12 12 14 11 16 12 7 11 9 14 9 9 13 4 8 9 12 16
7 9 9 4 2 2 1 2 0 0 7 1 2 2 1 2 3 2 1 2 5 6 5 3 5 5 6 8 8 6 2 2 2 7 10 4 7 4 4 5 3 1 11 16 16
5 6 6 5 4 3 2 1 0 3 8 1 2 2 2 1 1 1 1 2 1 3 3 12 2 4 4 2 4 2 2 1 1 3 9 8 7 6 0 1 2 14 13 14 14
5 4 6 7 1 4 4 1 2 6 1 2 1 1 0 2 2 3 4 5 4 5 10 4 5 2 3 6 3 4 4 8 8 7 14 3 6 12 11 6 7 10 12 13 14
4 6 7 6 5 6 2 1 8 4 7 1 1 1 2 1 2 1 3 9 5 3 10 10 17 7 7 9 10 8 7 6 10 16 19 5 12 12 5 12 12 13 13 12 15
6 7 6 9 10 7 1 6 5 5 3 4 3 8 6 1 2 1 3 7 3 8 8 12 19 2 3 0 3 5 7 4 11 16 12 18 25 19 8 9 10 10 11 14 13
5 5 4 7 16 9 3 10 9 4 2 1 6 5 10 8 5 1 3 2 3 5 0 4 13 3 1 1 6 8 7 8 6 9 21 16 22 15 9 8 6 9 10 10 10
7 2 3 13 17 2 7 8 9 6 6 4 10 11 10 7 6 7 8 10 4 7 1 6 7 20 2 8 17 9 7 8 7 8 10 14 13 11 5 7 7 8 9 10 11
7 3 4 24 5 3 9 5 4 9 4 5 5 11 12 10 10 10 12 10 3 8 11 13 6 10 26 18 4 6 16 17 11 10 11 14 18 5 10 7 4 4 3 5 8
5 2 3 6 7 8 6 8 10 9 8 3 6 4 0 5 6 11 12 4 5 4 5 1 4 7 9 8 2 5 6 14 8 3 12 10 3 5 10 6 4 3 1 2 5
3 4 2 2 0 7 13 13 13 2 5 7 8 6 6 10 9 10 11 2 2 1 3 2 5 13 16 16 7 6 4 6 8 7 10 11 16 15 12 1 1 1 3 0 3
0 3 0 5 8 11 8 3 6 3 2 1 1 3 1 4 5 7 9 5 3 2 1 3 7 13 17 19 19 19 20 23 22 21 14 22 21 24 20 9 2 2 3 2 5
3 3 2 2 5 8 13 12 17 12 6 7 11 9 7 10 12 17 12 10 14 8 8 6 12 16 22 22 19 18 18 21 21 22 24 25 27 12 2 1 2 4 6 4 8
2 2 0 5 5 6 5 6 3 6 2 3 3 1 4 6 2 2 5 6 7 7 9 9 9 12 21 16 18 16 20 21 24 24 24 23 12 5 1 4 6 6 7 7 7
Wind_Direction
22 17 13 6 1 356 354 350 344 339 338 336 338 338 333 328 319 298 247 233 203 186 170 155 145 138 126 111 104 206 234 247 247 216 259 182 245 169 299 273 228 208 247 282 208
13 10 3 357 353 348 343 338 334 328 323 322 324 329 329 327 317 259 261 216 190 184 168 167 167 160 165 144 175 228 233 248 231 227 259 278 254 287 262 265 261 259 253 250 239
7 5 3 359 354 349 344 337 328 323 319 317 316 320 325 329 292 229 244 188 179 179 183 167 147 174 206 190 189 182 245 247 239 244 262 278 275 243 261 274 265 279 292 284 240
5 6 4 360 356 352 345 339 332 320 315 315 315 318 327 332 299 190 169 172 180 179 158 144 160 183 217 219 184 232 245 242 262 223 229 264 289 256 248 263 278 285 289 279 265
1 3 3 3 358 354 348 339 329 319 313 311 311 315 344 193 252 263 224 185 181 180 181 169 179 191 228 227 197 238 255 252 247 248 253 273 265 266 268 267 279 279 276 268 269
359 5 5 1 356 353 348 335 324 317 307 300 298 303 143 248 261 260 228 187 190 183 184 178 218 209 245 231 220 326 277 278 275 256 244 242 271 297 257 273 282 284 278 281 267
3 5 2 356 354 352 344 333 323 314 302 291 280 216 200 252 230 230 199 196 200 192 170 203 161 193 160 260 285 329 299 293 267 258 233 220 265 235 268 282 275 284 288 293 280
354 357 354 351 350 349 344 332 324 325 315 284 238 166 249 230 244 232 210 161 182 195 213 187 179 210 233 67 266 264 256 281 298 155 174 198 278 287 317 310 294 289 290 286 282
325 337 340 346 347 349 343 331 335 358 34 89 126 196 262 189 208 223 194 159 145 136 108 128 157 208 187 239 272 224 272 269 295 237 132 213 281 292 293 291 289 287 284 284 296
296 313 325 337 342 344 343 335 4 30 59 84 102 238 199 250 146 137 164 154 127 132 119 141 159 216 196 214 256 278 273 262 272 290 281 288 274 278 286 283 278 285 285 299 293
285 306 318 329 340 345 345 336 274 191 242 266 251 265 283 114 148 120 147 129 119 170 187 152 203 219 242 231 249 285 279 283 279 286 298 290 295 293 282 282 282 283 296 299 302
276 290 309 327 339 349 357 41 48 339 297 248 253 267 241 118 316 132 162 184 185 199 133 162 229 232 282 262 251 260 270 271 280 282 290 287 297 292 292 269 271 287 299 305 328
259 273 289 322 332 6 34 78 316 150 251 285 234 238 305 184 226 184 191 159 184 183 204 241 264 239 214 254 254 249 256 273 273 314 280 300 283 252 281 275 297 284 281 342 36
240 247 251 311 332 338 42 342 332 274 268 237 204 131 136 179 198 233 172 204 193 262 213 250 315 221 198 250 248 274 268 264 281 304 299 18 304 298 273 278 64 38 74 55 31
234 247 256 210 253 236 201 327 52 177 283 79 157 129 138 234 120 68 70 159 227 186 198 257 178 166 203 229 187 265 35 321 312 288 302 303 269 335 203 243 123 67 54 41 37
242 231 205 195 219 226 209 151 37 236 242 254 156 155 137 90 73 66 70 73 27 207 264 265 352 227 227 162 204 138 291 210 182 288 274 315 220 339 183 182 52 83 58 50 39
146 173 190 171 171 174 162 264 226 231 7 181 192 129 86 151 185 204 165 184 241 285 274 266 218 229 215 230 154 189 274 288 269 249 269 89 239 254 285 39 48 71 76 53 48
158 167 185 188 190 158 146 218 236 215 233 36 59 138 250 159 168 231 268 282 211 233 290 283 284 200 171 231 270 191 206 242 282 277 283 127 260 262 114 88 73 61 55 45 39
210 202 209 203 181 179 169 231 246 195 213 270 244 281 287 346 277 237 240 279 282 199 259 300 274 92 214 158 231 152 222 266 265 267 279 267 264 268 177 85 75 61 50 40 35
196 190 229 194 173 138 218 246 247 213 121 175 244 231 270 265 236 343 280 148 259 196 319 302 291 269 288 287 236 252 313 256 219 257 252 247 260 263 182 128 88 55 44 35 32
168 193 186 170 157 141 212 222 250 239 230 246 247 256 262 272 237 265 246 277 246 282 201 305 247 277 208 233 271 253 242 232 273 254 260 265 259 313 6 84 80 50 31 29 21
150 207 162 157 183 190 227 200 235 293 264 265 267 261 259 269 269 266 253 247 276 300 279 274 276 254 269 292 277 259 259 242 242 242 232 252 252 85 106 105 132 132 77 46 31
164 125 184 203 203 208 214 230 239 237 233 235 256 220 207 267 279 253 254 243 297 282 281 59 231 293 278 252 162 218 285 265 290 296 246 255 261 157 116 128 161 171 164 67 35
136 153 197 224 212 228 226 248 245 178 233 233 248 234 261 261 250 272 282 316 29 342 61 53 254 249 262 278 326 268 239 286 283 275 303 266 274 242 236 13 331 123 147 165 44
314 186 207 186 223 225 222 200 205 219 322 299 225 187 112 270 307 261 280 300 246 335 275 219 264 274 276 278 275 270 271 274 274 274 265 281 281 282 287 301 245 334 343 314 358
168 162 107 170 143 189 211 235 246 247 242 239 253 273 265 253 250 285 288 266 267 275 279 265 270 277 272 275 266 269 263 265 270 272 268 266 267 289 32 64 285 333 303 288 343
160 82 124 152 165 176 207 212 160 153 136 89 113 328 230 255 164 284 243 253 258 270 275 270 272 268 269 277 290 267 249 259 266 265 268 273 295 80 53 290 284 280 284 265 319